Wind_Speed
25 25 24 24 24 24 23 22 21 20 20 21 21 20 20 19 20 19 19 19 19 19 19 19 19 20 20 19 19 19 18 18 18 18 19 19 20 21 21 21 22 22 22 23
25 25 26 25 24 24 24 23 23 22 22 22 22 22 21 21 20 21 21 20 19 20 20 20 21 21 21 20 20 20 20 20 19 20 20 21 22 23 23 23 24 23 24 23
25 26 26 26 24 23 23 23 23 22 22 24 23 23 23 23 22 21 22 22 22 21 22 22 22 22 22 22 22 22 22 21 21 22 22 23 24 24 24 24 25 25 24 24
25 26 27 25 24 24 23 23 24 24 24 25 25 24 24 23 23 24 24 23 22 22 22 22 23 23 22 22 22 23 23 22 22 23 23 24 24 25 24 25 25 25 25 26
26 26 27 26 24 23 23 24 24 24 25 25 24 24 24 24 23 24 24 23 23 23 23 23 24 24 23 23 23 24 24 24 23 24 24 25 26 26 25 26 26 27 27 28
28 27 27 26 24 23 24 24 23 24 24 23 23 23 24 24 24 24 24 24 24 24 24 25 25 24 25 25 25 26 26 26 25 25 25 26 26 26 27 27 28 28 28 29
29 29 29 27 26 25 25 25 24 24 23 23 24 24 24 24 24 24 25 25 26 26 26 26 25 25 26 26 26 26 26 26 26 26 27 27 28 29 29 29 29 29 29 29
30 30 30 29 28 27 27 26 26 25 24 24 24 24 24 24 24 25 26 26 27 27 27 27 26 26 27 27 26 27 28 28 28 28 28 29 30 30 30 30 30 29 29 29
32 31 30 30 29 28 28 27 27 26 26 26 25 25 25 25 25 26 27 27 28 29 28 28 28 28 28 27 27 28 28 29 30 30 31 31 31 32 32 31 30 30 30 29
33 32 31 30 30 29 28 28 27 27 27 28 28 27 27 27 27 27 28 28 28 29 30 30 30 30 29 29 29 29 30 31 31 32 33 33 33 33 33 32 31 30 30 29
33 32 31 30 30 29 29 28 27 27 28 29 29 29 28 28 28 28 28 29 29 30 30 31 31 32 32 32 31 32 32 33 33 33 34 34 33 33 32 31 30 30 30 30
34 33 32 31 31 31 30 29 29 28 28 28 28 28 29 28 28 28 29 29 29 29 30 30 31 32 32 32 33 34 34 34 35 34 34 34 33 33 32 30 30 30 30 29
34 33 33 32 31 31 31 30 29 29 28 28 28 28 28 28 28 29 29 30 30 30 31 31 31 32 33 33 33 33 34 34 34 34 33 33 33 33 32 31 30 30 30 29
34 34 34 33 32 32 31 30 30 30 30 29 29 29 29 29 30 30 30 30 30 30 31 32 32 33 33 33 33 33 32 32 32 33 33 33 32 32 32 31 31 30 29 29
35 34 34 33 33 33 32 31 30 31 30 30 29 29 29 30 30 30 31 31 31 32 31 32 32 32 32 33 33 32 32 31 31 31 31 31 31 31 31 31 31 31 30 30
34 34 34 34 33 33 32 32 31 31 30 30 29 29 29 30 30 31 30 30 31 31 31 31 32 32 32 32 31 31 30 30 30 30 30 30 30 30 30 31 32 30 30 30
33 33 33 33 33 33 32 32 31 31 30 29 30 30 30 30 30 30 30 29 30 30 30 30 31 32 31 30 30 30 29 29 29 29 29 30 30 30 30 30 30 29 29 29
32 32 32 32 32 32 31 31 31 31 30 30 30 30 30 30 29 29 29 28 28 29 29 28 28 28 28 27 28 28 29 29 29 29 29 29 29 29 28 28 28 27 27 28
30 31 31 32 32 32 31 31 31 31 30 30 29 28 29 29 29 29 29 28 27 27 27 27 27 27 26 27 27 28 28 28 28 28 28 28 28 27 27 27 28 28 28 28
29 29 30 30 31 30 30 30 29 29 29 28 28 28 27 28 28 29 29 28 27 27 26 26 26 26 26 26 27 27 28 28 28 28 27 27 27 27 28 28 28 29 29 29
27 27 27 27 28 28 28 28 27 27 27 27 27 27 27 27 27 27 28 27 27 26 26 26 25 25 25 26 26 26 26 26 26 27 26 26 27 27 27 27 27 28 28 27
26 26 26 26 26 26 26 26 26 26 26 25 25 25 25 25 26 26 27 27 27 26 26 25 25 26 26 26 26 25 25 25 25 26 26 26 26 26 26 26 26 26 26 27
23 24 24 24 24 24 25 25 25 25 25 25 24 24 24 25 25 26 26 26 25 25 25 25 25 25 26 25 25 24 25 25 25 26 25 25 25 25 25 26 26 26 26 26
21 22 22 22 22 23 23 24 24 24 24 25 25 25 25 25 25 25 24 24 24 24 24 24 24 24 24 25 25 25 25 25 25 25 24 24 24 24 24 24 24 24 24 24
17 19 20 21 22 22 22 22 22 22 23 23 24 24 24 23 23 24 24 24 24 23 23 23 23 23 24 24 24 24 24 24 24 23 23 22 22 22 22 22 22 22 22 22
15 16 17 18 19 20 20 21 21 21 21 21 21 22 22 22 22 23 23 23 23 23 23 22 23 23 23 23 23 23 23 23 23 23 23 22 22 21 21 21 21 20 20 20
13 13 14 15 16 17 17 17 18 19 19 20 20 21 21 21 21 21 21 22 22 22 22 22 22 22 22 22 22 23 23 23 23 23 23 22 22 21 21 21 20 19 20 20
Wind_Direction
239 244 246 249 251 254 256 255 257 259 261 263 264 266 268 267 267 267 266 265 266 265 262 262 264 267 269 274 276 278 279 282 284 282 281 283 285 286 288 287 288 289 290 288
242 245 246 248 250 254 256 257 256 256 259 261 264 265 266 265 265 265 264 263 264 263 262 262 265 267 270 273 275 276 276 277 282 285 281 281 283 284 286 288 288 289 289 287
244 247 249 250 252 254 256 256 256 258 260 260 262 263 264 263 261 262 263 262 261 263 264 262 263 266 268 272 274 276 277 278 279 281 282 283 282 283 287 289 288 286 288 288
243 245 247 251 252 255 256 256 257 258 259 261 263 264 264 263 261 262 262 264 263 264 265 264 262 265 269 272 273 274 276 276 277 280 282 284 285 286 287 290 291 289 290 289
243 246 249 250 252 255 257 258 257 258 259 261 264 265 263 263 262 264 263 264 263 263 263 264 265 266 267 269 272 274 276 278 278 280 282 284 285 286 288 289 290 290 289 290
241 243 248 252 252 255 258 258 257 259 261 261 262 263 263 262 263 265 265 264 263 263 262 264 265 268 269 271 272 273 275 276 277 278 281 283 286 287 289 289 289 290 289 288
242 244 248 250 251 254 256 259 259 259 261 261 262 263 263 263 262 262 264 265 264 264 265 264 265 266 270 273 275 275 275 276 278 279 281 284 285 287 289 292 291 290 290 289
242 245 248 249 251 253 256 257 258 259 259 263 263 263 263 264 264 262 263 264 262 263 265 265 265 267 270 272 273 273 273 275 277 281 283 284 286 288 290 290 290 290 289 288
242 245 248 250 253 255 257 259 260 260 261 263 265 264 265 266 267 265 265 264 263 263 265 267 266 268 270 271 272 274 274 275 277 280 282 284 285 286 288 289 288 288 289 289
244 246 249 252 254 256 257 259 261 262 263 265 266 268 267 267 268 268 265 265 266 264 265 266 266 267 269 271 273 275 276 277 278 279 281 283 284 285 286 286 286 287 288 289
244 247 249 250 252 255 258 260 261 262 264 266 267 267 267 267 269 268 265 264 266 265 266 266 265 266 268 270 272 274 275 277 279 280 281 282 284 285 285 284 285 285 286 287
245 247 249 250 252 255 258 260 262 264 266 267 268 267 267 266 266 267 267 266 268 267 266 268 267 267 269 271 273 274 275 276 278 281 283 283 285 286 286 284 285 285 285 285
246 247 249 251 254 256 258 260 262 265 267 267 267 266 264 264 265 267 268 267 267 267 267 267 269 268 269 271 273 274 276 277 279 281 282 284 285 287 286 284 284 283 283 284
245 246 248 251 254 256 258 261 262 264 266 267 267 265 264 265 266 266 267 266 267 267 268 269 270 269 270 272 274 277 278 279 280 282 283 285 286 286 285 284 281 280 281 282
244 245 248 252 255 257 259 261 263 264 265 265 266 265 266 267 268 268 268 268 267 268 267 269 271 272 273 273 275 276 278 280 282 284 284 286 286 286 284 284 282 280 281 281
245 246 249 252 255 257 258 260 262 263 264 265 266 268 269 268 270 270 270 270 270 270 269 270 269 270 271 273 274 275 277 280 281 282 284 285 286 286 285 285 282 282 283 283
245 247 250 252 255 256 257 260 262 263 264 265 265 267 268 269 270 271 271 271 270 270 270 270 270 270 271 272 273 275 277 279 281 281 284 285 284 285 285 285 285 285 283 283
247 249 251 252 252 254 257 259 261 262 263 264 266 265 266 267 268 269 270 270 271 271 270 269 271 273 272 273 275 277 278 279 281 282 284 284 284 284 285 286 285 284 285 285
247 250 251 252 252 254 257 259 259 259 261 262 264 264 264 266 267 268 268 269 270 271 271 271 273 273 273 275 277 279 280 281 282 283 285 285 285 285 284 285 285 284 285 285
248 249 251 252 254 255 256 258 258 258 260 261 262 262 264 265 266 266 266 267 268 270 272 272 272 273 275 276 278 279 280 280 282 284 285 285 286 286 285 284 284 284 284 285
248 249 250 251 252 252 254 254 255 258 260 261 262 261 261 262 263 263 265 266 267 269 270 270 271 275 276 278 279 280 280 280 281 283 285 286 286 286 286 286 285 284 283 283
247 247 248 250 252 253 254 254 256 258 259 260 261 261 261 261 261 261 262 264 266 266 268 269 271 273 276 279 279 279 280 281 282 283 285 286 287 285 285 286 286 284 283 283
247 248 249 250 252 253 255 256 256 256 257 258 258 259 260 261 262 262 263 263 263 264 266 269 272 275 277 278 278 278 279 281 283 284 285 286 286 286 286 286 286 286 287 287
251 250 250 250 251 254 257 257 257 257 259 259 258 259 261 262 262 262 262 263 264 265 267 270 273 274 274 275 276 277 279 281 283 284 284 284 285 287 287 287 287 288 288 287
253 253 252 251 250 252 255 255 257 259 260 261 262 262 262 263 263 263 264 265 267 267 269 272 272 272 273 274 275 278 279 281 282 283 283 283 285 288 289 288 288 288 290 290
251 253 253 251 250 250 252 253 256 259 260 260 261 263 264 265 265 265 266 267 267 268 269 271 271 272 274 275 277 279 280 281 281 283 283 283 284 286 288 288 287 288 289 289
253 255 254 252 251 251 252 253 255 259 261 261 262 264 266 266 265 265 267 268 268 269 268 270 271 273 275 276 277 278 279 279 281 282 283 281 281 284 286 287 288 287 288 288
Height
5862 5863 5865 5866 5868 5869 5871 5872 5874 5875 5875 5875 5874 5874 5874 5874 5874 5874 5874 5874 5874 5874 5873 5873 5873 5873 5873 5872 5872 5871 5871 5870 5869 5868 5867 5866 5865 5863 5862 5861 5859 5857 5856 5854
5855 5857 5858 5860 5862 5863 5864 5865 5866 5867 5868 5868 5868 5868 5868 5868 5868 5868 5868 5868 5868 5868 5868 5868 5869 5869 5868 5868 5867 5866 5865 5864 5863 5863 5862 5861 5859 5858 5856 5855 5853 5851 5850 5848
5849 5850 5851 5853 5856 5856 5858 5859 5860 5861 5862 5861 5861 5861 5862 5862 5862 5862 5862 5862 5863 5863 5863 5863 5863 5863 5863 5862 5862 5860 5859 5859 5858 5857 5856 5855 5853 5852 5850 5848 5847 5845 5843 5841
5843 5844 5845 5850 5849 5850 5851 5852 5853 5854 5854 5854 5854 5855 5855 5855 5855 5855 5856 5856 5856 5857 5857 5857 5857 5857 5856 5856 5856 5855 5853 5853 5852 5851 5850 5848 5847 5846 5844 5842 5840 5838 5836 5834
5836 5837 5839 5841 5842 5844 5845 5845 5846 5846 5847 5847 5847 5848 5848 5848 5848 5849 5849 5850 5850 5851 5851 5851 5851 5850 5850 5850 5849 5848 5847 5847 5846 5845 5843 5842 5840 5839 5837 5835 5833 5831 5829 5827
5828 5830 5833 5835 5836 5837 5839 5838 5839 5839 5840 5840 5841 5841 5842 5842 5842 5842 5843 5843 5844 5844 5844 5844 5844 5844 5844 5843 5842 5841 5841 5840 5839 5838 5837 5835 5834 5832 5830 5828 5826 5824 5822 5819
5820 5822 5825 5826 5828 5830 5832 5832 5832 5832 5833 5833 5834 5834 5835 5835 5835 5835 5836 5836 5837 5837 5837 5837 5837 5837 5837 5836 5835 5834 5834 5833 5832 5831 5829 5828 5827 5825 5823 5821 5819 5817 5814 5812
5812 5815 5818 5818 5820 5822 5823 5824 5824 5825 5825 5826 5826 5827 5827 5827 5828 5828 5829 5829 5829 5829 5829 5830 5830 5830 5829 5828 5828 5827 5826 5825 5824 5823 5822 5820 5819 5817 5815 5813 5811 5808 5806 5804
5805 5808 5808 5810 5812 5814 5815 5816 5817 5817 5818 5819 5819 5819 5819 5820 5820 5820 5821 5821 5821 5821 5822 5822 5822 5822 5821 5821 5820 5819 5818 5817 5817 5816 5814 5812 5811 5809 5807 5805 5802 5800 5798 5795
5795 5798 5800 5802 5804 5805 5807 5808 5809 5810 5810 5811 5811 5811 5811 5812 5812 5812 5812 5813 5812 5813 5814 5814 5814 5813 5813 5812 5812 5811 5810 5809 5808 5807 5806 5804 5802 5800 5798 5796 5794 5792 5789 5787
5786 5789 5792 5794 5795 5797 5798 5800 5801 5802 5802 5802 5802 5802 5803 5803 5803 5803 5804 5804 5804 5804 5805 5805 5805 5804 5804 5803 5802 5802 5801 5800 5799 5797 5796 5795 5793 5791 5788 5787 5785 5783 5781 5779
5778 5781 5783 5785 5787 5789 5790 5791 5792 5793 5794 5794 5794 5794 5794 5794 5794 5795 5795 5795 5795 5795 5795 5795 5795 5795 5794 5794 5793 5793 5792 5791 5790 5788 5787 5785 5784 5782 5780 5778 5775 5774 5772 5770
5769 5772 5774 5776 5778 5780 5781 5783 5784 5785 5786 5786 5785 5785 5785 5785 5786 5786 5786 5786 5786 5786 5786 5786 5785 5785 5785 5784 5783 5783 5782 5781 5780 5779 5778 5776 5774 5772 5770 5769 5766 5765 5763 5761
5760 5763 5765 5768 5769 5771 5772 5773 5775 5775 5776 5776 5776 5776 5777 5777 5777 5777 5777 5777 5777 5777 5777 5777 5776 5775 5775 5774 5774 5773 5772 5771 5770 5769 5768 5766 5764 5762 5760 5759 5757 5756 5754 5752
5751 5754 5756 5759 5760 5762 5763 5765 5766 5766 5767 5767 5767 5767 5768 5768 5768 5768 5768 5768 5768 5768 5768 5767 5767 5766 5765 5765 5764 5764 5763 5762 5761 5759 5758 5756 5755 5753 5751 5749 5748 5746 5745 5743
5742 5744 5747 5749 5751 5753 5754 5755 5756 5757 5758 5759 5759 5759 5759 5759 5759 5759 5759 5759 5759 5758 5758 5757 5757 5757 5756 5756 5755 5754 5754 5753 5751 5750 5749 5747 5745 5744 5742 5740 5738 5736 5735 5734
5733 5735 5738 5740 5741 5743 5744 5746 5747 5748 5749 5749 5750 5750 5750 5750 5750 5750 5750 5750 5749 5749 5749 5748 5748 5748 5747 5746 5746 5745 5745 5744 5742 5741 5739 5738 5736 5734 5733 5730 5728 5727 5726 5724
5724 5726 5728 5730 5732 5734 5735 5736 5737 5738 5739 5740 5740 5740 5740 5740 5741 5741 5741 5741 5740 5740 5740 5739 5739 5738 5738 5737 5737 5737 5736 5735 5734 5732 5730 5728 5727 5725 5723 5721 5720 5718 5716 5715
5715 5717 5719 5721 5722 5724 5725 5726 5727 5728 5729 5730 5731 5731 5731 5732 5732 5732 5732 5732 5732 5731 5731 5731 5730 5730 5729 5729 5729 5728 5727 5726 5725 5723 5721 5719 5718 5716 5714 5713 5711 5709 5708 5706
5706 5708 5710 5711 5713 5714 5716 5717 5718 5719 5720 5721 5721 5722 5722 5723 5723 5723 5723 5723 5724 5723 5723 5723 5722 5722 5721 5721 5721 5720 5718 5717 5716 5714 5713 5711 5709 5707 5706 5704 5702 5700 5698 5697
5698 5700 5701 5702 5704 5705 5707 5708 5709 5710 5711 5712 5712 5713 5713 5714 5714 5714 5715 5715 5715 5715 5715 5714 5714 5714 5714 5713 5712 5711 5710 5709 5707 5706 5704 5702 5701 5699 5697 5695 5693 5691 5689 5688
5690 5691 5693 5694 5696 5697 5698 5700 5701 5702 5703 5703 5704 5704 5705 5705 5706 5706 5707 5707 5708 5707 5707 5707 5707 5706 5706 5705 5704 5703 5702 5701 5699 5698 5696 5694 5692 5690 5688 5686 5684 5682 5681 5679
5683 5684 5685 5687 5688 5689 5691 5692 5693 5694 5695 5695 5696 5697 5697 5697 5697 5698 5699 5699 5699 5699 5699 5699 5699 5698 5698 5697 5696 5695 5694 5692 5691 5689 5687 5686 5684 5682 5680 5678 5676 5674 5672 5670
5676 5677 5678 5680 5681 5682 5683 5684 5685 5686 5687 5687 5688 5689 5689 5690 5690 5690 5691 5691 5691 5691 5691 5691 5691 5690 5690 5689 5688 5687 5686 5684 5682 5681 5679 5677 5676 5674 5672 5670 5668 5666 5664 5662
5670 5671 5672 5673 5674 5675 5676 5677 5678 5678 5679 5680 5680 5681 5681 5682 5682 5683 5683 5684 5684 5684 5684 5684 5683 5682 5682 5681 5680 5679 5678 5676 5675 5673 5672 5670 5668 5666 5664 5662 5660 5658 5656 5655
5665 5665 5666 5666 5667 5668 5669 5670 5671 5672 5672 5673 5673 5674 5674 5675 5675 5675 5676 5676 5676 5676 5676 5676 5675 5675 5674 5673 5672 5671 5670 5669 5668 5666 5665 5663 5661 5659 5657 5655 5653 5651 5650 5648
5660 5660 5661 5661 5662 5663 5663 5664 5665 5665 5666 5667 5667 5667 5667 5668 5668 5668 5669 5669 5669 5668 5668 5668 5667 5667 5666 5665 5664 5663 5662 5661 5660 5658 5657 5655 5653 5652 5650 5648 5646 5645 5643 5641